sat.trackr.live / text

‹ back to catalog

STARLINK-1677

NORAD 46576 · 2020-070AW

PAYLOAD ACTIVE UNKNOWN

§ Identity

Operator
Country
US
Launch date
2020-10-06
Launch site
AFETR
Launch vehicle
Mass (kg)
RCS (m²)

Purposes: comms

External: N2YO · Heavens-Above · Gunter

§ Orbital elements

Epoch: 2026-05-25T06:00:02.000160Z

Period
90.68 min
Inclination
53.0261°
Eccentricity
0.0007881
Mean motion
15.88067909 rev/d
Perigee alt
302.4 km
Apogee alt
313.0 km
Semi-major
6,685.8 km
B*
1.0500e-3
RAAN
102.3647°
Arg perigee
66.2397°
Mean anomaly
27.5021°
Rev number
579

§ Raw data

STARLINK-16771 46576U 20070AW  26145.25002315  .00302424  00000+0  10500-2 0  99952 46576  53.0261 102.3647 0007881  66.2397  27.5021 15.88067909  5798

JSON: /api/v1/satellites/46576 · /tle

For live sub-satellite position, see the globe view (requires WebGL).

§ Visibility from observer

Set your observer location to see the next 7 days of passes ≥ 10°. The values pass through the URL so the page stays shareable.

No JS? Fill the form by hand. The geolocation button needs JavaScript.